Regional Weather Roundup
Issued by NWS Midland/Odessa, TX

Skip options and go directly to product.
Home | Oldest Version | Previous Version | Current Version | All | Text Only | Save Text | Print | Product List | Glossary Off

Skip product version selection by date and time.   

416
ASUS44 KMAF 190010
RWRMAF
MIDLAND AREA WEATHER ROUNDUP
NATIONAL WEATHER SERVICE MIDLAND TX
600 PM CST WED JAN 18 2017

...IN SOUTHWEST TEXAS AND SOUTHEAST NEW MEXICO...

CITY           SKY/WX    TMP DP  RH WIND       PRES   REMARKS
ALPINE         CLEAR     56  28  33 W12       30.08S
ANDREWS        FAIR      55  39  55 SW7       29.98S
ARTESIA        CLEAR     55  37  50 SW17      29.95S
BIG SPRING     CLEAR     54  45  72 S7        30.01S
CARLSBAD       CLEAR     56  40  55 W14       29.96S
DRYDEN           N/A     57  44  62 SE5       29.99F
FORT STOCKTON  CLEAR     59  40  49 E5        29.99S
GUAD PASS      PTCLDY    48  36  63 W29       30.01S WCI  40
HOBBS          PTCLDY    55  37  50 SW12      29.97F
MARFA          CLEAR     53  26  35 W12       30.06S
MIDLAND AIRPK  CLEAR     57  42  57 S6        29.99S
MIDLAND INTL   CLEAR     58  41  53 S8        29.98
ODESSA         CLEAR     57  39  51 SW7       29.98F
PECOS          CLEAR     61  37  41 W10       29.98S
PRESIDIO       FAIR      63  37  37 SW3       30.01S
SEMINOLE       CLEAR     54  41  61 S7        29.97F
SNYDER         CLEAR     52  43  70 SW3       29.99S
WINK           CLEAR     59  42  53 S5        29.96S
$$
...OTHER STATIONS IN TEXAS...

CITY           SKY/WX    TMP DP  RH WIND       PRES   REMARKS
ABILENE        CLOUDY    51  46  83 S6        29.99F
AMARILLO       CLEAR     51  37  58 S12       29.87F
AUSTIN         CLOUDY    56  52  86 NW8       30.01R
BROWNSVILLE    CLOUDY    67  58  72 N5        29.98S
CORPUS CHRISTI CLOUDY    59  55  87 NW8       30.00R
DALLAS FTW     CLOUDY    54  50  86 N3        29.99F
DEL RIO        CLOUDY    54  45  71 N5        30.02F
EL PASO        PTCLDY    55  35  47 SW13      30.02S
HOUSTON INT    CLOUDY    63  59  87 NW5       29.97S
LUBBOCK        PTCLDY    53  42  66 S10       29.93F
SAN ANGELO     CLOUDY    50  45  83 S3        30.00F
SAN ANTONIO    MOCLDY    60  52  74 N9        29.99S
WACO           CLOUDY    52  49  89 NW9       30.02S
WICHITA FALLS  NOT AVBL
$$
...OTHER LOCATIONS IN NEW MEXICO...

CITY           SKY/WX    TMP DP  RH WIND       PRES   REMARKS
ALAMAGORDO     CLOUDY    48  39  71 S5        30.03F
ALBUQUERQUE    CLOUDY    46  35  65 N5        29.99S
CANNON AFB     PTCLDY    50  36  59 W17       29.89S
CLOVIS         CLEAR     50  36  57 SW16G24   29.89F
HOLLOMAN AFB   CLOUDY    50  40  68 S3        30.04F
ROSWELL        CLEAR     56  31  38 W16       29.92F
RUIDOSO        CLOUDY    39  25  56 W14       29.99F WCI  31
SANTA FE       CLOUDY    40  27  59 N14       29.97R WCI  32
TRUTH OR CONSE CLOUDY    49  40  71 S6        29.99F
TUCUMCARI      CLEAR     53  31  42 W13       29.82F
$$

  • National Weather Service
  • Southern Region Headquarters
  • 819 Taylor Street, Room 10A06
  • Fort Worth, TX 76102
  • Page Author: NWS Fort Worth
  • Web Master: SR-SRH.Webmaster@noaa.gov
  •  
  • Page last modified: 30-Sep-2016 6:36 PM UTC
USA.gov is the U.S. government's official web portal to all federal, state and local government web resources and services.